OPS 4682 DEB, 38386

Orbit data source: Space-Track

OPS 4682 DEB, 38386 is space debris in LEO originally from a launch on Sat, 03 Apr 1965 UTC launched from the Air Force Western Test Range (AFWTR). Debris objects in space refer to the collection of defunct objects orbiting the Earth. Examples of debris include non-operational satellites, rocket bodies, and fragments generated from explosions, collisions, or faulty payload assembly.

Loading next visibility...
Identifier
38386, 1965-027CP
Orbit
LEO
Country
Flag of USUS
Related business
Manufacturer
Unknown
Mission
Spacecraft
Bus & Motor
Unknown
Mass
Unknown
Launch date (UTC)
1965-04-03 (61 years ago)
Launch vehicle
Unknown
Launch site
Air Force Western Test Range (AFWTR)
Object type
Payload
Rocket body
Debris
Shape & HBR
Unknown shape, 0.1 m
Radar Cross Section
Small (<0.1 m²)

Expand to show TLE details & history
Last TLE update: 2 days ago

TLE from 2 days ago
0 OPS 4682 DEB
1 38386U 65027CP  25300.53906787  .00001280  00000-0  41496-2 0  9990
2 38386  90.2798  27.9144 0034347 112.1797 248.2976 13.01150003627413
Epoch: 2025-10-27T12:56Z
TLE epoch observation values (Epoch: 2025-10-27T12:56:15.463Z)
Latitude
-0.00006°
Longitude
157.71051°
Altitude
1,270.247 km
Speed
7.216 km/s
True Right ascension
01h 51m 39s
True Declination
0° 00' 00"
Sunlit
Object was in full shadow at epoch
Visualization orbit readout
Latitude
Unknown
Longitude
Unknown
Altitude
Unknown
Speed
Unknown
Apparent Right ascension
Unknown
Apparent Declination
Unknown
Sunlit
N/A
Visualization observer readout
Local Sidereal Time
10:37:05
Azimuth
Unknown
Elevation
Unknown
Doppler factor
Unknown
Orbital elements
Apogee altitude
1,280.926 km
Perigee altitude
1,228.493 km
Semi-major axis
7,632.846 km
Eccentricity
0.00343
Inclination
90.2798°
RAAN
27.9144°
Arg. of periapsis
112.1797°
True anomaly
247.93249°
Mean anomaly
248.2976°
Eccentric anomaly
248.11499°
Mean motion
3.25472 °/min
Orbital period
110.61 mins
BSTAR
0.0041496
Loading maneuver chart data...
Computing Atmospheric mass density...
Loading historical data...
Loading historical data...
Loading historical data...
Loading historical data...
Loading historical data...
Loading historical data...
Loading historical data...

Documentation

Showing up to 5 results
|